User: anonymous   Login
Location: Newark
(43.9494°N, 6.8108°E)
Time: 21:59:54
(UTC+00:00)
Language:

Explorer 7 - Orbit

View from above orbital plane
View from above orbital plane
View from above satellite
View from above satellite

Ground track
Ground track

The orbit data is extracted from the following two-line orbital elements,

1    22U 59009A   19292.87542979 +.00000122 +00000-0 +32635-4 0  9999
2    22 050.2829 155.4040 0140161 055.8500 305.5648 14.94959477434233
Epoch (UTC): 19 October 2019 21:00:37
Eccentricity: 0.0140161
inclination: 50.2829°
perigee height: 485 km
apogee height: 680 km
right ascension of ascending node: 155.4040°
argument of perigee: 55.8500°
revolutions per day: 14.94959477
mean anomaly at epoch: 305.5648°
orbit number at epoch: 43423

The dashed part of the orbit path shows where the satellite is in the earth's shadow,  

DLR